Flag for Germany Weather past 2 weeks in Alsfeld, Hesse, Germany

Now
53 °F

Overcast.


Feels Like: 53 °F
Forecast: 45 / 62 °F
Wind: 3 mph from South

Location: Fritzlar

Current Time: Apr 25, 2015 at 10:54:51 PM

Latest Report: Apr 25, 2015 at 10:00 PM


Visibility: 16 mi

Pressure: 29.81 "Hg

Humidity: 88%

Dew point: 50 °F

Location of AlsfeldLocation

Historic Weather in Alsfeld — Graph

°F

Alsfeld temperature yesterday

Maximum temperature yesterday: 67 °F (at 5:00 PM)
Minimum temperature yesterday: 35 °F (at 6:00 AM)
Average temperature yesterday: 53 °F

Past Weeks' High & Low Weather Summary

 TemperatureHumidityPressure
High75 °F (Apr 15, 5:00 PM)96% (Apr 23, 6:00 AM)30.47 "Hg (Apr 23, 6:00 AM)
Low29 °F (Apr 19, 7:00 AM)23% (Apr 21, 7:00 PM)29.75 "Hg (Apr 25, 5:00 PM)
Average50 °F63%30.18 "Hg
* Reported Apr 10 9:00 PM — Apr 25 9:00 PM, Alsfeld, Weather by CustomWeather, © 2015

Note: Actual official high and low records may vary slightly from our data, if they occured in-between our weather recording intervals... More about our weather records

Advertising

Alsfeld weather history for previous 24 hours

 ConditionsComfort  
Time TempWeatherWind HumidityBarometerVisibility
9:00 PM
Sat, Apr 25
55 °FOvercast.2 mph84%29.80 "Hg16 mi
8:00 PM57 °FOvercast.3 mph81%29.78 "Hg16 mi
7:00 PM57 °FLight rain. Overcast.5 mph80%29.77 "Hg12 mi
6:00 PM60 °FLight rain. Overcast.7 mph67%29.75 "Hg12 mi
5:00 PM61 °FOvercast.8 mph65%29.75 "Hg16 mi
4:00 PM61 °FOvercast.9 mph61%29.76 "Hg19 mi
3:00 PM60 °FOvercast.6 mph69%29.78 "Hg16 mi
2:00 PM57 °FLight rain. Overcast.6 mph70%29.80 "Hg12 mi
1:00 PM58 °FOvercast.10 mph63%29.81 "Hg12 mi
12:00 PM61 °FOvercast.6 mph54%29.80 "Hg16 mi
11:00 AM59 °FOvercast.6 mph52%29.80 "Hg16 mi
10:00 AM54 °FOvercast.N/A67%29.81 "Hg16 mi
9:00 AM50 °FOvercast.No wind75%29.82 "Hg14 mi
8:00 AM44 °FOvercast.N/A89%29.83 "Hg12 mi
7:00 AM41 °FOvercast.No wind91%29.84 "Hg11 mi
6:00 AM40 °FOvercast.No wind91%29.84 "Hg11 mi
5:00 AM41 °FPassing clouds.No wind88%29.84 "Hg8 mi
4:00 AM42 °FPassing clouds.No wind87%29.85 "Hg9 mi
3:00 AM42 °FPassing clouds.No wind86%29.85 "Hg9 mi
1:00 AM51 °FPassing clouds.2 mph64%29.86 "Hg12 mi
12:00 AM50 °FPassing clouds.N/A66%29.87 "Hg12 mi
10:00 PM
Fri, Apr 24
56 °FPassing clouds.2 mph53%29.86 "Hg16 mi
Weather by CustomWeather, © 2015

See weather overviewHow to use our weather pages